Content
SEND FEEDBACK

Daily
Averages
Monthly
Summary
Philippines

QUEZON CITY, PHILIPPINES


Home > Asia > Philippines
Elevation: 46 meters     Latitude: 14 39N     Longitude: 121 03E

WEATHER
 
SELECT A DAY
Number of Records: 172,513;   Date Range: 7/1/96 - 7/29/14
 
SHARE

PRINT THIS DATA

[ ← Previous Day ]
WEATHER ALMANAC - 12 FEBRUARY, 2013
[ Next Day → ]
[ °F ]   °C
Weather ElementAverageHighLow
Temperature27.2 °C32 °C (2:00 pm)24 °C (7:00 am)
Dewpoint22.6 °C24 °C (7:00 am)21.7 °C (11:00 pm)
Humidity75.2 %100 % (7:00 am)52 % (2:00 pm)
Barometer1012.9 hPa1014.9 hPa (11:00 pm)1011.2 hPa (3:00 pm)
Wind Speed11.7 km/h25.9 km/h (3:00 pm)
Weather ElementAverage
Visibility9.7 km
Wind DirectionESE (98.7 °)

Weather ElementTotal
Precipitation---
Cooling Degree Days9.7 (Base 18.3)
Growing Degree Days18 (Base 10)
Averaged from 30 records on 12 February, 2013
WEATHER CONDITIONS BREAKOUT
WIND DIRECTION BREAKOUT
WEATHER BY HOUR - 12 FEBRUARY, 2013
[ °F ]   °C
Local TimeTemperatureDewpointHumidityBarometerVisibilityWind DirectionWind SpeedGust SpeedPrecipitationEventsConditions
1:00 AM25 °C22 °C83 %1013.2 hPa9 kmSE (140°)7.4 km/hRainRain Showers
2:00 AM24.4 °C22.2 °C86 %1012.9 hPa9.7 kmSE (130°)3.5 km/hHaze
2:00 AM25 °C23 °C89 %1012.2 hPa9 kmVariable1.9 km/hOvercast
3:00 AM25 °C23 °C89 %1012.2 hPa9 kmVariable3.7 km/hOvercast
4:00 AM25 °C23 °C89 %1012.2 hPa9 kmNE (40°)9.3 km/hOvercast
5:00 AM25 °C22.2 °C82 %1012.2 hPa9.7 kmNorth (10°)7.2 km/hHaze
5:00 AM25 °C23 °C89 %1012.2 hPa10 kmNNE (20°)7.4 km/hOvercast
7:00 AM24 °C24 °C100 %1014.2 hPa8 kmEast (80°)9.3 km/hRainLight Rain Showers
8:00 AM24.4 °C23.9 °C96 %1014.2 hPa9.7 kmWest (270°)10.8 km/hRainLight Rain
8:00 AM25 °C24 °C94 %1014.2 hPa10 kmENE (70°)9.3 km/hMostly Cloudy
9:00 AM27 °C24 °C84 %1014.2 hPa10 kmENE (60°)13 km/hMostly Cloudy
10:00 AM27 °C24 °C84 %1014.2 hPa10 kmNW (310°)11.1 km/hMostly Cloudy
11:00 AM29.4 °C22.2 °C57 %1014.6 hPa9.7 kmEast (100°)14.3 km/hHaze
11:00 AM30 °C22 °C62 %1014.2 hPa10 kmEast (90°)13 km/hScattered Clouds
12:00 PM29 °C22 °C66 %1013.2 hPa10 kmEast (100°)16.7 km/hScattered Clouds
1:00 PM30 °C23 °C66 %1012.2 hPa10 kmESE (110°)14.8 km/hScattered Clouds
2:00 PM30.6 °C22.2 °C52 %1012.2 hPa9.7 kmEast (90°)18 km/hPartly Cloudy
2:00 PM32 °C22 °C55 %1012.2 hPa10 kmEast (100°)16.7 km/hPartly Cloudy
3:00 PM29 °C23 °C70 %1011.2 hPa10 kmESE (120°)25.9 km/hScattered Clouds
4:00 PM30 °C23 °C66 %1011.2 hPa10 kmESE (110°)18.5 km/hScattered Clouds
5:00 PM30 °C22.2 °C54 %1011.5 hPa9.7 kmESE (120°)14.3 km/hScattered Clouds
5:00 PM30 °C22 °C62 %1011.2 hPa10 kmESE (120°)14.8 km/hScattered Clouds
6:00 PM29 °C22 °C66 %1012.2 hPa10 kmEast (100°)18.5 km/hScattered Clouds
7:00 PM28 °C22 °C70 %1012.2 hPa10 kmEast (100°)11.1 km/hScattered Clouds
8:00 PM27.2 °C22.2 °C68 %1013.5 hPa9.7 kmESE (110°)14.3 km/hHaze
8:00 PM27 °C22 °C74 %1013.2 hPa10 kmESE (110°)14.8 km/hScattered Clouds
9:00 PM27 °C22 °C74 %1013.2 hPa10 kmEast (100°)11.1 km/hPartly Cloudy
10:00 PM25 °C22 °C83 %1013.2 hPa10 kmENE (70°)7.4 km/hPartly Cloudy
11:00 PM26.1 °C21.7 °C69 %1014.9 hPa9.7 kmEast (90°)7.2 km/hHaze
11:00 PM26 °C22 °C78 %1014.2 hPa10 kmEast (90°)7.4 km/hPartly Cloudy
Hourly data recorded from RPLL, located 0 kilometers away from Quezon City, Philippines







STORIES FROM OUR PARTNERS